WXM80 ListenWXM80 Stop

You find our weather info also at:

UK Metoffice

WeatherCloud

Weather Underground

Northeastern Weather Network

AWEKAS

Citizen Weather Observer Program (CWOP)

HAMweather, WeatherForYou, PWS Weather


Weather Underground History page Text

Daily Summary for September 19, 2017 Units:  English    Metric   Both
« Previous Day
Next Day »
Daily Weekly Monthly Yearly Custom
  High: Low: Average:
Temperature: 73.7 °F 68.9 °F 70.3 °F
Dew Point: 68.7 °F 66.5 °F 67.8 °F
Humidity: 96 % 82 % 92 %
Wind Speed: 11.1 mph 2.1 mph 6.1 mph
Wind Gust: 20.0 mph - -
Wind:- - ENE
Pressure: 30.01 in 29.78 in -
Precipitation: 0.24 in    
Historical Graphs
 
 
Tabular Data for September 19, 2017
Time Temperature Dew Point Pressure Wind Wind Speed Wind Gust Humidity Rainfall Rate (Hourly)
00:04 71.0 °F 68.6 °F 30.01 in ENE 2.1 mph 3.5 mph 92 % 0.00 in
00:09 71.0 °F 68.6 °F 30.01 in ENE 3.5 mph 4.6 mph 92 % 0.00 in
00:14 71.0 °F 68.6 °F 30.01 in ENE 4.3 mph 5.8 mph 92 % 0.00 in
00:19 71.0 °F 68.6 °F 30.01 in ENE 4.4 mph 6.9 mph 92 % 0.00 in
00:24 71.0 °F 68.6 °F 30.01 in NE 4.4 mph 8.1 mph 92 % 0.00 in
00:29 71.0 °F 68.6 °F 30.01 in NE 4.5 mph 8.1 mph 92 % 0.00 in
00:34 70.9 °F 68.5 °F 30.01 in ENE 5.4 mph 5.8 mph 92 % 0.00 in
00:40 70.9 °F 68.5 °F 30.01 in ENE 2.7 mph 3.5 mph 92 % 0.00 in
00:45 70.9 °F 68.5 °F 30.01 in ENE 3.4 mph 6.9 mph 92 % 0.00 in
00:50 70.9 °F 68.5 °F 30.01 in ENE 2.3 mph 6.9 mph 92 % 0.00 in
00:55 70.8 °F 68.4 °F 30.01 in ENE 4.2 mph 7.0 mph 92 % 0.00 in
01:00 70.8 °F 68.4 °F 30.01 in ENE 2.9 mph 4.6 mph 92 % 0.00 in
01:05 70.8 °F 68.7 °F 30.01 in East 4.3 mph 6.9 mph 93 % 0.00 in
01:10 70.8 °F 68.7 °F 30.01 in ENE 4.8 mph 8.1 mph 93 % 0.00 in
01:15 70.8 °F 68.7 °F 30.01 in ENE 3.4 mph 8.1 mph 93 % 0.00 in
01:20 70.8 °F 68.7 °F 30.01 in ENE 3.6 mph 9.0 mph 93 % 0.00 in
01:25 70.7 °F 68.6 °F 30.01 in ENE 4.2 mph 8.0 mph 93 % 0.00 in
01:30 70.7 °F 68.6 °F 30.00 in ENE 3.6 mph 5.0 mph 93 % 0.00 in
01:35 70.7 °F 68.6 °F 30.00 in ENE 3.1 mph 5.8 mph 93 % 0.00 in
01:40 70.7 °F 68.6 °F 30.00 in ENE 4.8 mph 5.8 mph 93 % 0.00 in
01:46 70.7 °F 68.6 °F 30.00 in ENE 4.2 mph 5.8 mph 93 % 0.00 in
01:51 70.7 °F 68.6 °F 30.00 in ENE 3.0 mph 8.0 mph 93 % 0.00 in
01:56 70.7 °F 68.6 °F 30.00 in NE 3.3 mph 8.1 mph 93 % 0.00 in
02:01 70.7 °F 68.6 °F 30.00 in ENE 2.7 mph 3.5 mph 93 % 0.00 in
02:06 70.7 °F 68.6 °F 30.00 in ENE 5.0 mph 10.4 mph 93 % 0.00 in
02:11 70.7 °F 68.6 °F 30.00 in ENE 4.4 mph 6.9 mph 93 % 0.00 in
02:16 70.7 °F 68.6 °F 29.99 in ENE 3.6 mph 5.0 mph 93 % 0.00 in
02:21 70.7 °F 68.6 °F 29.99 in ENE 3.7 mph 6.9 mph 93 % 0.00 in
02:26 70.7 °F 68.6 °F 29.99 in NE 3.2 mph 5.0 mph 93 % 0.00 in
02:31 70.7 °F 68.6 °F 29.99 in East 3.3 mph 5.0 mph 93 % 0.00 in
02:36 70.7 °F 68.6 °F 29.99 in ENE 5.0 mph 9.2 mph 93 % 0.00 in
02:41 70.6 °F 68.5 °F 29.98 in NE 2.3 mph 3.5 mph 93 % 0.00 in
02:46 70.6 °F 68.5 °F 29.98 in East 4.3 mph 9.2 mph 93 % 0.00 in
02:51 70.6 °F 68.2 °F 29.98 in NE 3.3 mph 6.9 mph 92 % 0.00 in
02:57 70.6 °F 68.2 °F 29.98 in NE 4.5 mph 9.2 mph 92 % 0.00 in
03:02 70.6 °F 68.5 °F 29.98 in ENE 4.5 mph 8.1 mph 93 % 0.00 in
03:07 70.6 °F 68.5 °F 29.98 in ENE 3.2 mph 9.2 mph 93 % 0.00 in
03:12 70.6 °F 68.5 °F 29.98 in ENE 3.9 mph 7.0 mph 93 % 0.00 in
03:17 70.5 °F 68.4 °F 29.97 in ENE 7.5 mph 11.5 mph 93 % 0.00 in
03:22 70.5 °F 68.4 °F 29.97 in East 6.6 mph 11.5 mph 93 % 0.00 in
03:27 70.5 °F 68.1 °F 29.97 in ENE 6.5 mph 10.4 mph 92 % 0.00 in
03:32 70.5 °F 68.1 °F 29.98 in East 4.5 mph 8.1 mph 92 % 0.00 in
03:37 70.5 °F 68.4 °F 29.98 in ENE 5.5 mph 6.9 mph 93 % 0.00 in
03:42 70.5 °F 68.4 °F 29.97 in NNE 4.6 mph 11.5 mph 93 % 0.00 in
03:47 70.5 °F 68.4 °F 29.98 in ENE 4.4 mph 5.0 mph 93 % 0.00 in
03:52 70.5 °F 68.4 °F 29.97 in ENE 6.1 mph 10.4 mph 93 % 0.00 in
03:58 70.4 °F 68.3 °F 29.97 in ENE 4.9 mph 10.4 mph 93 % 0.00 in
04:03 70.4 °F 68.3 °F 29.97 in NE 5.2 mph 8.1 mph 93 % 0.00 in
04:08 70.4 °F 68.3 °F 29.97 in ENE 4.3 mph 11.5 mph 93 % 0.00 in
04:13 70.3 °F 68.2 °F 29.97 in ENE 6.8 mph 10.4 mph 93 % 0.00 in
04:18 70.3 °F 68.2 °F 29.97 in NE 8.8 mph 12.7 mph 93 % 0.00 in
04:23 70.2 °F 68.1 °F 29.97 in NE 6.7 mph 8.1 mph 93 % 0.00 in
04:28 70.2 °F 68.1 °F 29.97 in ENE 6.5 mph 11.5 mph 93 % 0.00 in
04:33 70.2 °F 68.1 °F 29.97 in ENE 4.6 mph 8.0 mph 93 % 0.00 in
04:38 70.2 °F 68.1 °F 29.97 in ENE 5.0 mph 8.0 mph 93 % 0.00 in
04:43 70.2 °F 68.1 °F 29.97 in ENE 5.2 mph 12.7 mph 93 % 0.00 in
04:48 70.2 °F 68.1 °F 29.97 in NE 5.3 mph 11.0 mph 93 % 0.00 in
04:53 70.2 °F 68.1 °F 29.97 in ENE 6.4 mph 12.7 mph 93 % 0.00 in
04:59 70.1 °F 68.0 °F 29.97 in NE 6.4 mph 9.0 mph 93 % 0.00 in
05:04 70.1 °F 68.0 °F 29.97 in ENE 4.2 mph 11.5 mph 93 % 0.00 in
05:09 70.1 °F 68.0 °F 29.96 in ENE 6.3 mph 11.5 mph 93 % 0.00 in
05:14 70.1 °F 68.0 °F 29.96 in ENE 5.5 mph 9.2 mph 93 % 0.00 in
05:19 70.0 °F 67.9 °F 29.96 in ENE 4.3 mph 8.1 mph 93 % 0.00 in
05:24 70.0 °F 67.9 °F 29.97 in ENE 7.4 mph 13.0 mph 93 % 0.00 in
05:29 70.0 °F 67.9 °F 29.96 in ENE 6.4 mph 11.5 mph 93 % 0.00 in
05:34 69.9 °F 67.8 °F 29.96 in NE 5.0 mph 10.4 mph 93 % 0.00 in
05:39 69.9 °F 67.5 °F 29.96 in NE 6.0 mph 9.2 mph 92 % 0.00 in
05:44 69.8 °F 67.4 °F 29.96 in ENE 6.3 mph 10.4 mph 92 % 0.00 in
05:49 69.8 °F 67.4 °F 29.96 in NE 5.6 mph 10.4 mph 92 % 0.00 in
05:54 69.8 °F 67.4 °F 29.97 in ENE 5.1 mph 10.4 mph 92 % 0.00 in
05:59 69.7 °F 67.3 °F 29.97 in ENE 6.0 mph 8.0 mph 92 % 0.00 in
06:05 69.7 °F 67.3 °F 29.96 in NNE 6.0 mph 11.5 mph 92 % 0.00 in
06:10 69.7 °F 67.3 °F 29.96 in NE 4.1 mph 8.1 mph 92 % 0.00 in
06:15 69.7 °F 67.3 °F 29.96 in ENE 4.5 mph 8.1 mph 92 % 0.00 in
06:20 69.6 °F 67.2 °F 29.97 in NE 3.7 mph 6.9 mph 92 % 0.00 in
06:25 69.6 °F 67.2 °F 29.97 in NE 3.1 mph 8.1 mph 92 % 0.00 in
06:30 69.6 °F 67.2 °F 29.97 in NNE 3.9 mph 8.1 mph 92 % 0.00 in
06:35 69.5 °F 67.1 °F 29.97 in East 3.6 mph 6.0 mph 92 % 0.00 in
06:40 69.5 °F 67.1 °F 29.97 in NNE 3.4 mph 4.6 mph 92 % 0.00 in
06:45 69.4 °F 67.0 °F 29.97 in ENE 3.3 mph 6.9 mph 92 % 0.00 in
06:50 69.4 °F 67.0 °F 29.97 in NE 5.0 mph 8.1 mph 92 % 0.00 in
06:55 69.4 °F 67.0 °F 29.97 in ENE 6.5 mph 10.4 mph 92 % 0.00 in
07:00 69.3 °F 66.9 °F 29.97 in NE 4.7 mph 9.2 mph 92 % 0.00 in
07:02 69.3 °F 66.9 °F 29.97 in NE 5.2 mph 8.1 mph 92 % 0.00 in
07:07 69.2 °F 66.8 °F 29.96 in NE 4.3 mph 6.9 mph 92 % 0.00 in
07:12 69.2 °F 66.8 °F 29.96 in ENE 6.1 mph 9.2 mph 92 % 0.00 in
07:17 69.2 °F 66.8 °F 29.96 in ENE 9.0 mph 13.8 mph 92 % 0.00 in
07:22 69.2 °F 66.8 °F 29.95 in ENE 5.7 mph 9.0 mph 92 % 0.00 in
07:28 69.2 °F 66.8 °F 29.95 in ENE 5.9 mph 9.0 mph 92 % 0.00 in
07:33 69.2 °F 66.8 °F 29.95 in ENE 6.7 mph 11.5 mph 92 % 0.00 in
07:38 69.3 °F 66.9 °F 29.95 in NE 4.1 mph 11.5 mph 92 % 0.00 in
07:43 69.3 °F 66.9 °F 29.95 in NE 6.7 mph 8.1 mph 92 % 0.00 in
07:48 69.3 °F 66.9 °F 29.95 in ENE 5.1 mph 9.2 mph 92 % 0.00 in
07:53 69.3 °F 66.9 °F 29.95 in ENE 5.3 mph 9.2 mph 92 % 0.00 in
07:58 69.3 °F 66.9 °F 29.95 in ENE 6.6 mph 12.7 mph 92 % 0.00 in
08:03 69.3 °F 66.9 °F 29.95 in NE 4.4 mph 6.9 mph 92 % 0.00 in
08:08 69.3 °F 66.6 °F 29.95 in NE 7.7 mph 12.7 mph 91 % 0.00 in
08:13 69.3 °F 66.6 °F 29.95 in ENE 5.0 mph 11.5 mph 91 % 0.00 in
08:18 69.3 °F 66.6 °F 29.95 in North 5.3 mph 9.2 mph 91 % 0.00 in
08:23 69.3 °F 66.6 °F 29.95 in ENE 8.1 mph 13.8 mph 91 % 0.00 in
08:28 69.3 °F 66.6 °F 29.96 in ENE 5.8 mph 7.0 mph 91 % 0.00 in
08:34 69.4 °F 66.7 °F 29.96 in ENE 4.6 mph 7.0 mph 91 % 0.00 in
08:39 69.4 °F 66.7 °F 29.96 in ENE 9.3 mph 15.0 mph 91 % 0.00 in
08:44 69.5 °F 66.8 °F 29.96 in ENE 5.1 mph 13.8 mph 91 % 0.00 in
08:49 69.5 °F 66.8 °F 29.96 in NE 5.7 mph 10.4 mph 91 % 0.00 in
08:54 69.7 °F 67.0 °F 29.96 in NE 6.6 mph 11.5 mph 91 % 0.00 in
08:59 69.8 °F 67.1 °F 29.96 in ENE 5.4 mph 10.4 mph 91 % 0.00 in
09:04 69.9 °F 67.2 °F 29.96 in NE 4.0 mph 9.2 mph 91 % 0.00 in
09:09 70.0 °F 66.9 °F 29.96 in ENE 5.8 mph 10.4 mph 90 % 0.00 in
09:14 70.0 °F 66.6 °F 29.96 in ENE 5.9 mph 10.4 mph 89 % 0.00 in
09:19 70.1 °F 67.0 °F 29.96 in ENE 6.3 mph 10.4 mph 90 % 0.00 in
09:24 70.1 °F 67.0 °F 29.96 in NE 6.4 mph 9.2 mph 90 % 0.00 in
09:29 70.1 °F 66.7 °F 29.96 in ENE 3.8 mph 11.5 mph 89 % 0.00 in
09:34 70.0 °F 66.6 °F 29.96 in NE 6.6 mph 9.2 mph 89 % 0.00 in
09:39 70.0 °F 66.9 °F 29.96 in ENE 4.4 mph 6.9 mph 90 % 0.00 in
09:45 70.0 °F 66.9 °F 29.97 in ENE 6.0 mph 10.4 mph 90 % 0.00 in
09:50 70.0 °F 66.9 °F 29.97 in ENE 4.3 mph 9.2 mph 90 % 0.00 in
09:55 70.0 °F 66.9 °F 29.97 in ENE 3.7 mph 9.2 mph 90 % 0.00 in
10:00 70.1 °F 67.0 °F 29.97 in NE 3.0 mph 4.6 mph 90 % 0.00 in
10:05 70.1 °F 67.0 °F 29.96 in ENE 6.3 mph 10.4 mph 90 % 0.00 in
10:10 70.2 °F 66.8 °F 29.97 in ENE 7.0 mph 13.0 mph 89 % 0.00 in
10:15 70.2 °F 66.5 °F 29.96 in ENE 7.9 mph 12.7 mph 88 % 0.00 in
10:20 70.3 °F 66.6 °F 29.96 in North 5.4 mph 10.4 mph 88 % 0.00 in
10:25 70.4 °F 67.0 °F 29.96 in NE 6.4 mph 16.1 mph 89 % 0.00 in
10:30 70.6 °F 67.2 °F 29.95 in NE 5.1 mph 6.9 mph 89 % 0.00 in
10:35 70.8 °F 67.1 °F 29.95 in ENE 5.9 mph 10.4 mph 88 % 0.00 in
10:41 71.0 °F 67.3 °F 29.95 in East 9.4 mph 10.0 mph 88 % 0.00 in
10:46 71.1 °F 67.0 °F 29.95 in ENE 8.0 mph 12.0 mph 87 % 0.00 in
10:51 71.2 °F 67.1 °F 29.96 in ENE 7.0 mph 15.0 mph 87 % 0.00 in
10:56 71.2 °F 67.1 °F 29.95 in ENE 9.0 mph 13.0 mph 87 % 0.00 in
11:01 71.3 °F 67.2 °F 29.95 in ENE 6.4 mph 12.7 mph 87 % 0.00 in
11:06 71.5 °F 67.4 °F 29.95 in ENE 6.0 mph 15.0 mph 87 % 0.00 in
11:11 71.8 °F 67.4 °F 29.95 in ENE 8.0 mph 13.0 mph 86 % 0.00 in
11:16 72.2 °F 67.7 °F 29.94 in ENE 7.0 mph 13.0 mph 86 % 0.00 in
11:21 72.7 °F 68.3 °F 29.95 in ENE 8.0 mph 15.0 mph 86 % 0.00 in
11:26 73.1 °F 68.0 °F 29.94 in ENE 7.0 mph 17.0 mph 84 % 0.00 in
11:31 73.5 °F 68.4 °F 29.94 in ENE 8.0 mph 14.0 mph 84 % 0.00 in
11:36 73.7 °F 67.9 °F 29.94 in ENE 9.0 mph 14.0 mph 82 % 0.00 in
11:41 73.6 °F 68.1 °F 29.94 in ENE 7.0 mph 17.0 mph 83 % 0.00 in
11:46 73.6 °F 68.1 °F 29.94 in ENE 9.0 mph 13.0 mph 83 % 0.00 in
11:51 73.4 °F 67.9 °F 29.93 in ENE 8.0 mph 18.0 mph 83 % 0.00 in
11:56 73.3 °F 67.8 °F 29.93 in ENE 9.0 mph 16.0 mph 83 % 0.00 in
12:01 73.3 °F 67.8 °F 29.93 in ENE 10.8 mph 19.6 mph 83 % 0.00 in
12:06 73.3 °F 67.8 °F 29.92 in ENE 7.7 mph 16.1 mph 83 % 0.00 in
12:11 73.2 °F 67.7 °F 29.92 in NE 9.5 mph 15.0 mph 83 % 0.00 in
12:16 73.1 °F 68.0 °F 29.92 in NE 8.5 mph 11.5 mph 84 % 0.00 in
12:21 73.1 °F 68.0 °F 29.92 in NE 7.9 mph 13.8 mph 84 % 0.00 in
12:26 73.0 °F 67.9 °F 29.92 in NE 6.8 mph 12.0 mph 84 % 0.00 in
12:31 72.9 °F 68.1 °F 29.92 in NE 6.6 mph 13.0 mph 85 % 0.00 in
12:36 72.8 °F 68.0 °F 29.92 in ENE 9.6 mph 16.1 mph 85 % 0.00 in
12:41 72.6 °F 67.8 °F 29.92 in ENE 9.3 mph 16.1 mph 85 % 0.00 in
12:46 72.5 °F 68.1 °F 29.92 in NE 9.7 mph 15.0 mph 86 % 0.00 in
12:51 72.2 °F 67.8 °F 29.92 in ENE 10.8 mph 12.7 mph 86 % 0.00 in
12:57 72.0 °F 67.6 °F 29.91 in ENE 9.4 mph 15.0 mph 86 % 0.00 in
13:02 71.9 °F 67.5 °F 29.90 in NNE 11.1 mph 13.8 mph 86 % 0.00 in
13:07 71.9 °F 67.8 °F 29.91 in ENE 6.0 mph 11.5 mph 87 % 0.00 in
13:12 71.9 °F 67.8 °F 29.90 in NE 5.3 mph 8.1 mph 87 % 0.00 in
13:17 71.9 °F 68.2 °F 29.90 in NE 5.0 mph 10.4 mph 88 % 0.00 in
13:22 71.9 °F 67.8 °F 29.90 in ENE 6.5 mph 11.5 mph 87 % 0.00 in
13:27 71.9 °F 68.2 °F 29.90 in NE 5.9 mph 10.4 mph 88 % 0.01 in
13:32 71.7 °F 68.0 °F 29.89 in ENE 5.1 mph 8.1 mph 88 % 0.01 in
13:37 71.6 °F 67.9 °F 29.89 in ENE 4.5 mph 8.1 mph 88 % 0.01 in
13:42 71.4 °F 68.0 °F 29.89 in ENE 5.3 mph 10.4 mph 89 % 0.02 in
13:44 71.3 °F 67.9 °F 29.89 in ENE 4.0 mph 7.0 mph 89 % 0.02 in
13:49 71.2 °F 67.8 °F 29.89 in ENE 4.6 mph 13.0 mph 89 % 0.03 in
13:54 71.0 °F 67.9 °F 29.89 in NE 4.2 mph 9.2 mph 90 % 0.05 in
13:59 70.8 °F 68.0 °F 29.89 in East 5.3 mph 10.0 mph 91 % 0.06 in
14:04 70.6 °F 67.8 °F 29.89 in East 5.4 mph 9.2 mph 91 % 0.07 in
14:09 70.4 °F 67.6 °F 29.89 in ENE 5.8 mph 9.2 mph 91 % 0.09 in
14:14 70.2 °F 67.8 °F 29.89 in NNE 5.8 mph 9.0 mph 92 % 0.11 in
14:19 70.1 °F 67.7 °F 29.88 in NNE 6.3 mph 11.5 mph 92 % 0.11 in
14:25 69.9 °F 67.8 °F 29.88 in NNE 6.7 mph 10.4 mph 93 % 0.12 in
14:30 69.8 °F 67.7 °F 29.88 in NE 4.7 mph 9.2 mph 93 % 0.13 in
14:35 69.7 °F 67.9 °F 29.87 in North 5.2 mph 9.2 mph 94 % 0.14 in
14:40 69.7 °F 67.9 °F 29.87 in NNE 6.1 mph 11.5 mph 94 % 0.13 in
14:45 69.6 °F 67.8 °F 29.86 in NE 5.3 mph 9.0 mph 94 % 0.13 in
14:50 69.5 °F 67.7 °F 29.86 in NE 6.6 mph 11.5 mph 94 % 0.13 in
14:55 69.4 °F 67.6 °F 29.86 in North 8.6 mph 11.5 mph 94 % 0.11 in
14:59 69.4 °F 67.9 °F 29.86 in North 8.4 mph 10.4 mph 95 % 0.10 in
15:04 69.5 °F 68.0 °F 29.85 in North 9.5 mph 15.0 mph 95 % 0.09 in
15:09 69.5 °F 68.0 °F 29.85 in NNE 9.6 mph 13.8 mph 95 % 0.07 in
15:14 69.6 °F 68.4 °F 29.85 in North 9.3 mph 11.5 mph 96 % 0.05 in
15:19 69.6 °F 68.4 °F 29.85 in NNE 9.9 mph 12.7 mph 96 % 0.05 in
15:25 69.6 °F 68.4 °F 29.85 in NNE 5.9 mph 15.0 mph 96 % 0.03 in
15:30 69.7 °F 68.5 °F 29.85 in NNE 7.6 mph 11.5 mph 96 % 0.02 in
15:35 69.7 °F 68.5 °F 29.84 in NNE 8.1 mph 15.0 mph 96 % 0.01 in
15:40 69.7 °F 68.5 °F 29.84 in NNE 8.8 mph 13.8 mph 96 % 0.01 in
15:45 69.7 °F 68.2 °F 29.84 in NNE 9.0 mph 20.0 mph 95 % 0.00 in
15:50 69.7 °F 68.2 °F 29.84 in NNE 8.0 mph 15.0 mph 95 % 0.00 in
15:55 69.7 °F 68.2 °F 29.84 in ENE 10.3 mph 17.3 mph 95 % 0.00 in
16:01 69.7 °F 68.2 °F 29.85 in North 7.4 mph 12.0 mph 95 % 0.00 in
16:06 69.7 °F 68.2 °F 29.84 in NNE 6.7 mph 17.3 mph 95 % 0.00 in
16:11 69.7 °F 68.2 °F 29.84 in NNE 5.6 mph 13.0 mph 95 % 0.00 in
16:16 69.8 °F 68.3 °F 29.84 in NNE 6.2 mph 11.5 mph 95 % 0.00 in
16:21 69.8 °F 68.3 °F 29.84 in NE 7.6 mph 11.0 mph 95 % 0.01 in
16:26 69.8 °F 68.3 °F 29.84 in North 9.2 mph 15.0 mph 95 % 0.01 in
16:31 69.8 °F 68.3 °F 29.84 in NE 4.7 mph 11.5 mph 95 % 0.01 in
16:36 69.7 °F 68.2 °F 29.84 in NNE 5.3 mph 13.0 mph 95 % 0.02 in
16:41 69.6 °F 68.1 °F 29.84 in NE 7.5 mph 16.1 mph 95 % 0.02 in
16:46 69.6 °F 68.1 °F 29.84 in NE 7.8 mph 11.5 mph 95 % 0.02 in
16:51 69.5 °F 68.0 °F 29.84 in NNE 6.4 mph 12.7 mph 95 % 0.02 in
16:57 69.4 °F 67.9 °F 29.84 in ENE 5.2 mph 10.4 mph 95 % 0.02 in
17:02 69.4 °F 67.9 °F 29.83 in East 6.2 mph 13.8 mph 95 % 0.02 in
17:07 69.4 °F 67.9 °F 29.83 in North 4.7 mph 9.2 mph 95 % 0.02 in
17:12 69.4 °F 67.9 °F 29.83 in NNE 9.7 mph 15.0 mph 95 % 0.02 in
17:17 69.3 °F 67.8 °F 29.83 in NNE 7.4 mph 12.7 mph 95 % 0.01 in
17:22 69.3 °F 67.8 °F 29.84 in NNE 6.1 mph 11.5 mph 95 % 0.01 in
17:27 69.4 °F 67.9 °F 29.84 in NE 7.0 mph 9.2 mph 95 % 0.01 in
17:32 69.3 °F 67.8 °F 29.83 in East 6.2 mph 11.5 mph 95 % 0.01 in
17:37 69.4 °F 67.9 °F 29.83 in NNE 5.5 mph 12.7 mph 95 % 0.00 in
17:42 69.4 °F 67.9 °F 29.83 in NE 10.2 mph 10.2 mph 95 % 0.00 in
17:47 69.3 °F 67.8 °F 29.83 in NE 8.8 mph 16.1 mph 95 % 0.00 in
17:52 69.3 °F 67.8 °F 29.83 in NE 6.8 mph 8.0 mph 95 % 0.00 in
17:58 69.3 °F 67.8 °F 29.83 in NNE 7.0 mph 10.4 mph 95 % 0.01 in
18:03 69.2 °F 67.7 °F 29.83 in NNE 6.5 mph 15.0 mph 95 % 0.05 in
18:08 69.2 °F 67.7 °F 29.83 in North 5.4 mph 11.5 mph 95 % 0.05 in
18:13 69.1 °F 67.6 °F 29.82 in North 6.7 mph 11.5 mph 95 % 0.05 in
18:18 69.0 °F 67.5 °F 29.82 in North 5.4 mph 12.0 mph 95 % 0.05 in
18:23 69.0 °F 67.5 °F 29.82 in NE 7.2 mph 11.5 mph 95 % 0.05 in
18:28 69.0 °F 67.5 °F 29.82 in NE 5.5 mph 11.5 mph 95 % 0.05 in
18:33 69.0 °F 67.8 °F 29.82 in NE 7.9 mph 12.0 mph 96 % 0.05 in
18:38 69.0 °F 67.8 °F 29.82 in NE 6.6 mph 12.0 mph 96 % 0.05 in
18:43 69.0 °F 67.8 °F 29.82 in NE 5.0 mph 12.7 mph 96 % 0.05 in
18:48 68.9 °F 67.7 °F 29.82 in ENE 5.8 mph 9.2 mph 96 % 0.06 in
18:53 68.9 °F 67.7 °F 29.82 in NE 5.7 mph 10.4 mph 96 % 0.06 in
18:58 68.9 °F 67.7 °F 29.81 in NE 4.5 mph 9.2 mph 96 % 0.05 in
19:03 68.9 °F 67.7 °F 29.81 in NNE 6.5 mph 11.5 mph 96 % 0.01 in
19:09 68.9 °F 67.7 °F 29.81 in NNE 8.0 mph 12.7 mph 96 % 0.01 in
19:14 69.0 °F 67.8 °F 29.81 in NNE 5.7 mph 11.5 mph 96 % 0.01 in
19:19 68.9 °F 67.7 °F 29.81 in ENE 7.4 mph 12.7 mph 96 % 0.01 in
19:24 69.0 °F 67.8 °F 29.81 in North 6.0 mph 10.4 mph 96 % 0.01 in
19:29 69.0 °F 67.8 °F 29.81 in ENE 8.8 mph 13.8 mph 96 % 0.01 in
19:34 69.0 °F 67.8 °F 29.81 in NNE 6.5 mph 11.5 mph 96 % 0.01 in
19:39 69.0 °F 67.8 °F 29.81 in NE 5.8 mph 11.5 mph 96 % 0.01 in
19:44 69.1 °F 67.9 °F 29.81 in ENE 6.1 mph 11.5 mph 96 % 0.01 in
19:49 69.1 °F 67.9 °F 29.81 in NE 5.1 mph 8.1 mph 96 % 0.00 in
19:54 69.1 °F 67.9 °F 29.81 in NNE 7.9 mph 12.7 mph 96 % 0.00 in
19:59 69.1 °F 67.6 °F 29.81 in North 5.4 mph 10.4 mph 95 % 0.00 in
20:04 69.1 °F 67.6 °F 29.81 in NE 7.2 mph 17.3 mph 95 % 0.00 in
20:10 69.2 °F 67.7 °F 29.81 in NE 5.8 mph 10.4 mph 95 % 0.00 in
20:15 69.2 °F 67.7 °F 29.81 in NE 6.8 mph 11.5 mph 95 % 0.00 in
20:20 69.3 °F 67.5 °F 29.81 in NE 5.6 mph 13.0 mph 94 % 0.00 in
20:25 69.3 °F 67.5 °F 29.82 in NNE 5.0 mph 9.2 mph 94 % 0.00 in
20:30 69.4 °F 67.6 °F 29.82 in NE 5.0 mph 10.0 mph 94 % 0.00 in
20:35 69.5 °F 67.7 °F 29.81 in NNE 5.6 mph 9.2 mph 94 % 0.00 in
20:40 69.6 °F 67.8 °F 29.81 in NE 6.9 mph 13.8 mph 94 % 0.00 in
20:45 69.6 °F 67.8 °F 29.82 in East 5.4 mph 9.0 mph 94 % 0.00 in
20:50 69.7 °F 67.9 °F 29.81 in ENE 7.7 mph 12.7 mph 94 % 0.00 in
20:55 69.7 °F 67.9 °F 29.81 in NE 5.8 mph 9.0 mph 94 % 0.00 in
21:00 69.8 °F 67.7 °F 29.81 in NE 8.8 mph 13.0 mph 93 % 0.00 in
21:05 69.8 °F 67.7 °F 29.81 in ENE 5.5 mph 11.5 mph 93 % 0.00 in
21:10 69.8 °F 67.7 °F 29.81 in NE 5.5 mph 10.4 mph 93 % 0.00 in
21:16 69.9 °F 67.8 °F 29.81 in NE 6.0 mph 10.0 mph 93 % 0.00 in
21:21 69.9 °F 67.8 °F 29.81 in ENE 6.6 mph 12.0 mph 93 % 0.00 in
21:26 69.9 °F 67.8 °F 29.81 in NE 7.0 mph 15.0 mph 93 % 0.00 in
21:31 70.0 °F 67.9 °F 29.81 in NE 8.0 mph 17.0 mph 93 % 0.00 in
21:36 70.0 °F 67.9 °F 29.81 in NE 7.0 mph 12.0 mph 93 % 0.00 in
21:41 70.0 °F 67.9 °F 29.80 in NE 8.0 mph 20.0 mph 93 % 0.00 in
21:46 70.1 °F 68.0 °F 29.81 in NNE 6.1 mph 11.5 mph 93 % 0.00 in
21:51 70.1 °F 68.0 °F 29.80 in NE 7.0 mph 14.0 mph 93 % 0.00 in
21:56 70.1 °F 68.0 °F 29.80 in NE 6.0 mph 16.0 mph 93 % 0.00 in
22:01 70.1 °F 68.0 °F 29.80 in NNE 5.8 mph 11.5 mph 93 % 0.00 in
22:06 70.1 °F 67.7 °F 29.80 in ENE 7.9 mph 15.0 mph 92 % 0.00 in
22:11 70.2 °F 67.8 °F 29.80 in NNE 6.9 mph 13.8 mph 92 % 0.00 in
22:16 70.2 °F 67.8 °F 29.79 in NNE 5.7 mph 15.0 mph 92 % 0.00 in
22:21 70.3 °F 67.9 °F 29.79 in North 5.2 mph 18.4 mph 92 % 0.00 in
22:26 70.3 °F 67.5 °F 29.79 in NNE 5.7 mph 15.0 mph 91 % 0.00 in
22:31 70.3 °F 67.5 °F 29.79 in NE 7.0 mph 11.5 mph 91 % 0.00 in
22:36 70.4 °F 67.6 °F 29.79 in NNE 6.7 mph 11.5 mph 91 % 0.00 in
22:41 70.5 °F 67.7 °F 29.79 in ENE 7.2 mph 12.7 mph 91 % 0.00 in
22:46 70.5 °F 67.7 °F 29.79 in NNE 8.1 mph 15.0 mph 91 % 0.00 in
22:52 70.5 °F 67.7 °F 29.79 in NNE 7.2 mph 12.7 mph 91 % 0.00 in
22:57 70.6 °F 67.8 °F 29.79 in NNE 6.3 mph 11.5 mph 91 % 0.00 in
23:02 70.6 °F 67.8 °F 29.79 in North 6.7 mph 14.0 mph 91 % 0.00 in
23:07 70.6 °F 67.8 °F 29.79 in NNE 5.1 mph 10.4 mph 91 % 0.00 in
23:19 70.6 °F 67.5 °F 29.79 in ENE 7.7 mph 12.0 mph 90 % 0.00 in
23:22 70.6 °F 67.5 °F 29.79 in NE 8.2 mph 12.7 mph 90 % 0.00 in
23:23 70.6 °F 67.5 °F 29.79 in NNE 6.8 mph 11.5 mph 90 % 0.00 in
23:25 70.7 °F 67.6 °F 29.79 in ENE 6.3 mph 11.5 mph 90 % 0.00 in
23:26 70.6 °F 67.5 °F 29.79 in ENE 6.8 mph 12.7 mph 90 % 0.00 in
23:27 70.7 °F 67.6 °F 29.79 in NNW 5.8 mph 10.0 mph 90 % 0.00 in
23:32 70.6 °F 67.5 °F 29.79 in NNE 6.4 mph 14.0 mph 90 % 0.00 in
23:37 70.7 °F 67.6 °F 29.78 in NE 5.2 mph 8.1 mph 90 % 0.00 in
23:42 70.7 °F 67.6 °F 29.79 in NE 7.2 mph 11.5 mph 90 % 0.00 in
23:47 70.7 °F 67.6 °F 29.79 in NE 8.1 mph 11.5 mph 90 % 0.00 in
23:52 70.7 °F 67.6 °F 29.78 in North 8.4 mph 12.7 mph 90 % 0.00 in
23:57 70.7 °F 67.6 °F 29.78 in NNE 4.3 mph 17.3 mph 90 % 0.00 in
Crab Meadow Weather
Compliments of Weather Underground - 3 mb

Script developed by  Jim McMurry - jmcmurry@mwt.net Adapted for the template by  Wim van der Kuil - Leuven-Template.eu

Humidity: Humidity is the amount of water vapor in the air. The term "humidity" refers to relative humidity. Relative humidity is defined as the amount of water vapor in a sample of air compared to the maximum amount of water vapor the air can hold at any specific temperature in a form of 0 to 100%. Relative humidity is important in forecasting weather. Humidity indicates the likelihood of precipitation, dew, or fog. High humidity makes people feel hotter outside in the summer because it reduces the effectiveness of sweating to cool the body by preventing the evaporation of perspiration from the skin.